| time (UTC) | temp F | wind direction | speed MPH | gust MPH | rain 1hr in | rain 24hr in | rain mn in | humidity % | barometer mb |
| 20260503005654 | 44 | 10 | 2.0 | 3.0 | 0.00 | 0.01 | 0.01 | 65 | 1017.9 |
| 20260503005151 | 44 | 359 | 3.0 | 3.0 | 0.00 | 0.01 | 0.01 | 65 | 1017.8 |
| 20260503004647 | 44 | 353 | 0.0 | 1.0 | 0.00 | 0.01 | 0.01 | 66 | 1017.8 |
| 20260503004145 | 44 | 357 | 1.0 | 2.0 | 0.00 | 0.01 | 0.01 | 65 | 1017.9 |
| 20260503003642 | 44 | 342 | 2.0 | 2.0 | 0.00 | 0.01 | 0.01 | 66 | 1017.7 |
| 20260503003134 | 44 | 28 | 1.0 | 1.0 | 0.00 | 0.01 | 0.01 | 65 | 1017.7 |
| 20260503002631 | 45 | 358 | 0.0 | 0.0 | 0.00 | 0.01 | 0.01 | 66 | 1017.8 |
| 20260503002128 | 45 | 10 | 1.0 | 1.0 | 0.00 | 0.01 | 0.01 | 65 | 1017.7 |
| 20260503001623 | 45 | 37 | 2.0 | 3.0 | 0.00 | 0.01 | 0.01 | 62 | 1017.8 |
| 20260503001121 | 45 | 1 | 1.0 | 1.0 | 0.00 | 0.01 | 0.01 | 65 | 1017.7 |
| 20260503000618 | 45 | 357 | 2.0 | 2.0 | 0.00 | 0.01 | 0.01 | 65 | 1017.6 |
| 20260503000115 | 45 | 341 | 1.0 | 1.0 | 0.00 | 0.01 | 0.01 | 63 | 1017.8 |
| 20260502235612 | 45 | 5 | 4.0 | 6.0 | 0.00 | 0.01 | 0.01 | 62 | 1017.7 |
| 20260502235110 | 45 | 31 | 2.0 | 3.0 | 0.00 | 0.01 | 0.01 | 62 | 1017.5 |
| 20260502234605 | 46 | 57 | 2.0 | 3.0 | 0.00 | 0.01 | 0.01 | 62 | 1017.5 |
| 20260502234103 | 46 | 47 | 3.0 | 4.0 | 0.00 | 0.01 | 0.01 | 60 | 1017.5 |
| 20260502233558 | 46 | 49 | 2.0 | 3.0 | 0.00 | 0.01 | 0.01 | 61 | 1017.5 |
| 20260502233055 | 46 | 10 | 3.0 | 4.0 | 0.00 | 0.01 | 0.01 | 60 | 1017.4 |
| 20260502232551 | 46 | 9 | 7.0 | 9.0 | 0.00 | 0.01 | 0.01 | 57 | 1017.4 |
| 20260502232049 | 46 | 349 | 7.0 | 8.0 | 0.00 | 0.01 | 0.01 | 53 | 1017.3 |
| 20260502231545 | 46 | 349 | 7.0 | 8.0 | 0.00 | 0.01 | 0.01 | 54 | 1017.4 |
| 20260502231043 | 46 | 352 | 6.0 | 8.0 | 0.00 | 0.01 | 0.01 | 53 | 1017.4 |
| 20260502230541 | 46 | 343 | 6.0 | 8.0 | 0.00 | 0.01 | 0.01 | 53 | 1017.3 |
| 20260502230040 | 47 | 342 | 10.0 | 11.0 | 0.00 | 0.01 | 0.01 | 54 | 1017.4 |
| 20260502225535 | 47 | 7 | 2.0 | 3.0 | 0.00 | 0.01 | 0.01 | 54 | 1017.3 |
| 20260502225032 | 47 | 349 | 9.0 | 10.0 | 0.00 | 0.01 | 0.01 | 54 | 1017.4 |
| 20260502224528 | 47 | 328 | 9.0 | 9.0 | 0.00 | 0.01 | 0.01 | 55 | 1017.3 |
| 20260502224025 | 47 | 330 | 9.0 | 11.0 | 0.00 | 0.01 | 0.01 | 56 | 1017.3 |
| 20260502223523 | 47 | 14 | 5.0 | 7.0 | 0.00 | 0.01 | 0.01 | 59 | 1017.2 |
| 20260502223021 | 47 | 354 | 3.0 | 6.0 | 0.00 | 0.01 | 0.01 | 59 | 1017.3 |
| 20260502222518 | 47 | 356 | 5.0 | 7.0 | 0.00 | 0.01 | 0.01 | 57 | 1017.2 |
| 20260502222014 | 47 | 346 | 5.0 | 6.0 | 0.00 | 0.01 | 0.01 | 56 | 1017.2 |
| 20260502221510 | 48 | 335 | 5.0 | 7.0 | 0.00 | 0.01 | 0.01 | 57 | 1017.2 |
| 20260502221008 | 47 | 2 | 6.0 | 7.0 | 0.00 | 0.01 | 0.01 | 52 | 1017.1 |
| 20260502220503 | 47 | 23 | 7.0 | 8.0 | 0.00 | 0.01 | 0.01 | 54 | 1017.3 |
| 20260502220000 | 47 | 45 | 4.0 | 6.0 | 0.00 | 0.01 | 0.01 | 54 | 1017.1 |
| 20260502215457 | 47 | 8 | 6.0 | 8.0 | 0.00 | 0.01 | 0.01 | 56 | 1017.1 |
| 20260502214954 | 48 | 35 | 6.0 | 7.0 | 0.00 | 0.01 | 0.01 | 56 | 1017.1 |
| 20260502214451 | 48 | 16 | 9.0 | 10.0 | 0.00 | 0.01 | 0.01 | 60 | 1017.2 |
| 20260502213948 | 48 | 357 | 6.0 | 9.0 | 0.00 | 0.01 | 0.01 | 58 | 1016.7 |
| 20260502213445 | 48 | 341 | 5.0 | 6.0 | 0.00 | 0.01 | 0.01 | 54 | 1017.0 |
| 20260502212943 | 49 | 327 | 9.0 | 9.0 | 0.00 | 0.01 | 0.01 | 50 | 1016.9 |
| 20260502212442 | 48 | 342 | 7.0 | 8.0 | 0.00 | 0.01 | 0.01 | 56 | 1017.0 |
| 20260502211939 | 48 | 340 | 9.0 | 11.0 | 0.00 | 0.01 | 0.01 | 58 | 1017.0 |
| 20260502211434 | 48 | 321 | 9.0 | 10.0 | 0.00 | 0.01 | 0.01 | 51 | 1016.9 |
| 20260502210932 | 48 | 339 | 9.0 | 10.0 | 0.00 | 0.01 | 0.01 | 56 | 1016.7 |
| 20260502210428 | 49 | 328 | 10.0 | 11.0 | 0.00 | 0.01 | 0.01 | 53 | 1017.0 |
| 20260502205926 | 48 | 314 | 10.0 | 13.0 | 0.00 | 0.01 | 0.01 | 60 | 1016.8 |
| 20260502205422 | 48 | 355 | 8.0 | 10.0 | 0.00 | 0.01 | 0.01 | 52 | 1016.7 |
| 20260502204919 | 48 | 352 | 6.0 | 7.0 | 0.00 | 0.01 | 0.01 | 54 | 1016.9 |
| 20260502204416 | 49 | 341 | 10.0 | 11.0 | 0.00 | 0.01 | 0.01 | 53 | 1017.0 |
| 20260502203914 | 49 | 336 | 9.0 | 10.0 | 0.00 | 0.01 | 0.01 | 53 | 1017.1 |
| 20260502203411 | 48 | 339 | 10.0 | 11.0 | 0.00 | 0.01 | 0.01 | 55 | 1017.2 |
| 20260502202906 | 49 | 331 | 11.0 | 11.0 | 0.00 | 0.01 | 0.01 | 53 | 1016.9 |
| 20260502202404 | 48 | 313 | 11.0 | 13.0 | 0.00 | 0.01 | 0.01 | 54 | 1016.9 |
| 20260502201902 | 48 | 318 | 11.0 | 13.0 | 0.00 | 0.01 | 0.01 | 54 | 1016.9 |
| 20260502201357 | 49 | 347 | 7.0 | 9.0 | 0.00 | 0.01 | 0.01 | 51 | 1017.0 |
| 20260502200854 | 50 | 329 | 11.0 | 13.0 | 0.00 | 0.01 | 0.01 | 49 | 1017.0 |
| 20260502200350 | 48 | 341 | 12.0 | 15.0 | 0.00 | 0.01 | 0.01 | 57 | 1017.0 |
| 20260502195849 | 48 | 349 | 8.0 | 9.0 | 0.00 | 0.01 | 0.01 | 55 | 1017.1 |
| 20260502195345 | 49 | 33 | 7.0 | 10.0 | 0.00 | 0.01 | 0.01 | 59 | 1017.2 |
| 20260502194842 | 49 | 298 | 8.0 | 9.0 | 0.00 | 0.01 | 0.01 | 54 | 1017.1 |
| 20260502194338 | 48 | 342 | 10.0 | 13.0 | 0.00 | 0.01 | 0.01 | 55 | 1017.1 |
| 20260502193834 | 48 | 326 | 12.0 | 14.0 | 0.00 | 0.01 | 0.01 | 55 | 1017.2 |
| 20260502193332 | 48 | 339 | 11.0 | 11.0 | 0.00 | 0.01 | 0.01 | 56 | 1017.2 |
| 20260502192827 | 49 | 313 | 11.0 | 13.0 | 0.00 | 0.01 | 0.01 | 59 | 1017.3 |
| 20260502192324 | 50 | 334 | 13.0 | 15.0 | 0.00 | 0.01 | 0.01 | 58 | 1017.3 |
| 20260502191821 | 48 | 344 | 8.0 | 8.0 | 0.00 | 0.01 | 0.01 | 54 | 1017.4 |
| 20260502191320 | 48 | 355 | 13.0 | 15.0 | 0.00 | 0.01 | 0.01 | 56 | 1017.2 |
| 20260502190816 | 48 | 355 | 9.0 | 13.0 | 0.00 | 0.01 | 0.01 | 52 | 1017.3 |
| 20260502190314 | 48 | 344 | 7.0 | 8.0 | 0.00 | 0.01 | 0.01 | 53 | 1017.3 |
| 20260502185809 | 48 | 350 | 9.0 | 10.0 | 0.00 | 0.01 | 0.01 | 56 | 1017.4 |
| 20260502185306 | 49 | 331 | 11.0 | 13.0 | 0.00 | 0.01 | 0.01 | 58 | 1017.5 |
| 20260502184802 | 48 | 337 | 6.0 | 7.0 | 0.00 | 0.01 | 0.01 | 55 | 1017.4 |
| 20260502184257 | 48 | 2 | 9.0 | 11.0 | 0.00 | 0.01 | 0.01 | 55 | 1017.6 |
| 20260502183754 | 47 | 345 | 9.0 | 10.0 | 0.00 | 0.01 | 0.01 | 54 | 1017.6 |
| 20260502183251 | 48 | 330 | 6.0 | 7.0 | 0.00 | 0.01 | 0.01 | 55 | 1017.5 |
| 20260502182746 | 49 | 298 | 6.0 | 8.0 | 0.00 | 0.01 | 0.01 | 56 | 1017.4 |
| 20260502182241 | 49 | 353 | 9.0 | 10.0 | 0.00 | 0.01 | 0.01 | 54 | 1017.6 |
| 20260502181737 | 48 | 6 | 6.0 | 8.0 | 0.00 | 0.01 | 0.01 | 61 | 1017.5 |
| 20260502181232 | 48 | 336 | 8.0 | 9.0 | 0.00 | 0.01 | 0.01 | 60 | 1017.6 |
| 20260502180728 | 48 | 343 | 15.0 | 17.0 | 0.00 | 0.01 | 0.01 | 54 | 1017.5 |
| 20260502180225 | 48 | 329 | 9.0 | 11.0 | 0.00 | 0.01 | 0.01 | 55 | 1017.5 |
| 20260502170144 | 48 | 317 | 9.0 | 10.0 | 0.00 | 0.01 | 0.01 | 59 | 1017.7 |
| 20260502164130 | 47 | 335 | 9.0 | 9.0 | 0.00 | 0.01 | 0.01 | 58 | 1017.9 |
| 20260502163626 | 48 | 325 | 12.0 | 14.0 | 0.00 | 0.01 | 0.01 | 57 | 1017.9 |
| 20260502163123 | 48 | 323 | 9.0 | 10.0 | 0.00 | 0.01 | 0.01 | 58 | 1018.1 |
| 20260502162620 | 48 | 2 | 9.0 | 10.0 | 0.00 | 0.01 | 0.01 | 63 | 1018.0 |
| 20260502162117 | 46 | 337 | 13.0 | 15.0 | 0.00 | 0.01 | 0.01 | 64 | 1018.1 |
| 20260502161614 | 46 | 299 | 9.0 | 10.0 | 0.00 | 0.01 | 0.01 | 61 | 1018.0 |
| 20260502161111 | 46 | 338 | 10.0 | 10.0 | 0.00 | 0.01 | 0.01 | 61 | 1018.0 |
| 20260502160610 | 47 | 319 | 13.0 | 15.0 | 0.00 | 0.01 | 0.01 | 57 | 1018.1 |
| 20260502160108 | 46 | 351 | 9.0 | 11.0 | 0.00 | 0.01 | 0.01 | 63 | 1018.0 |
| 20260502152022 | 47 | 330 | 9.0 | 9.0 | 0.00 | 0.01 | 0.01 | 63 | 1018.1 |
| 20260502151519 | 45 | 336 | 9.0 | 13.0 | 0.00 | 0.01 | 0.01 | 67 | 1018.2 |
| 20260502151016 | 45 | 328 | 10.0 | 11.0 | 0.00 | 0.01 | 0.01 | 64 | 1017.9 |
| 20260502150514 | 45 | 17 | 8.0 | 10.0 | 0.00 | 0.01 | 0.01 | 65 | 1018.0 |
| 20260502130359 | 40 | 330 | 6.0 | 7.0 | 0.00 | 0.01 | 0.01 | 81 | 1017.8 |
| 20260502123341 | 37 | 337 | 6.0 | 7.0 | 0.00 | 0.01 | 0.01 | 99 | 1017.7 |
| 20260502122839 | 37 | 3 | 5.0 | 7.0 | 0.00 | 0.01 | 0.01 | 99 | 1017.8 |
| 20260502122334 | 37 | 346 | 4.0 | 4.0 | 0.00 | 0.01 | 0.01 | 99 | 1017.8 |
| 20260502121833 | 36 | 327 | 5.0 | 7.0 | 0.00 | 0.01 | 0.01 | 99 | 1017.6 |
| 20260502121330 | 36 | 332 | 5.0 | 6.0 | 0.00 | 0.01 | 0.01 | 99 | 1017.7 |
| 20260502120827 | 36 | 328 | 3.0 | 3.0 | 0.00 | 0.01 | 0.01 | 99 | 1017.6 |
| 20260502120323 | 35 | 340 | 3.0 | 3.0 | 0.00 | 0.01 | 0.01 | 99 | 1017.6 |
| 20260502115821 | 38 | 67 | 0.0 | 0.0 | 0.00 | 0.01 | 0.01 | 99 | 1017.7 |
| 20260502115318 | 37 | 68 | 0.0 | 0.0 | 0.00 | 0.01 | 0.01 | 99 | 1017.5 |
| 20260502114814 | 38 | 68 | 0.0 | 0.0 | 0.00 | 0.01 | 0.01 | 99 | 1017.9 |
| 20260502114311 | 36 | 68 | 0.0 | 0.0 | 0.00 | 0.01 | 0.01 | 99 | 1017.8 |
| 20260502113808 | 35 | 68 | 0.0 | 0.0 | 0.00 | 0.01 | 0.01 | 99 | 1017.6 |
| 20260502113306 | 37 | 68 | 0.0 | 0.0 | 0.00 | 0.01 | 0.01 | 99 | 1017.9 |
| 20260502112804 | 34 | 68 | 0.0 | 0.0 | 0.00 | 0.01 | 0.01 | 99 | 1017.6 |
| 20260502112301 | 32 | 68 | 0.0 | 0.0 | 0.00 | 0.01 | 0.01 | 99 | 1017.8 |
| 20260502111758 | 32 | 68 | 0.0 | 0.0 | 0.00 | 0.01 | 0.01 | 99 | 1017.7 |
| 20260502111255 | 32 | 69 | 0.0 | 0.0 | 0.00 | 0.01 | 0.01 | 99 | 1017.7 |
| 20260502110753 | 32 | 69 | 0.0 | 0.0 | 0.00 | 0.01 | 0.01 | 99 | 1017.6 |
| 20260502110251 | 32 | 66 | 0.0 | 0.0 | 0.00 | 0.01 | 0.01 | 99 | 1017.4 |
| 20260502105748 | 32 | 66 | 0.0 | 0.0 | 0.00 | 0.01 | 0.01 | 99 | 1017.6 |
| 20260502105244 | 31 | 66 | 0.0 | 0.0 | 0.00 | 0.01 | 0.01 | 99 | 1017.4 |
| 20260502104742 | 31 | 66 | 0.0 | 0.0 | 0.00 | 0.01 | 0.01 | 99 | 1017.4 |
| 20260502104240 | 32 | 66 | 0.0 | 0.0 | 0.00 | 0.01 | 0.01 | 99 | 1017.7 |
| 20260502103737 | 32 | 66 | 0.0 | 0.0 | 0.00 | 0.01 | 0.01 | 99 | 1017.3 |
| 20260502103234 | 32 | 66 | 0.0 | 0.0 | 0.00 | 0.01 | 0.01 | 99 | 1017.4 |
| 20260502102731 | 32 | 65 | 0.0 | 0.0 | 0.00 | 0.01 | 0.01 | 99 | 1017.4 |
| 20260502102228 | 32 | 65 | 0.0 | 0.0 | 0.00 | 0.01 | 0.01 | 99 | 1017.5 |
| 20260502101726 | 32 | 64 | 0.0 | 0.0 | 0.00 | 0.01 | 0.01 | 99 | 1017.3 |
| 20260502101224 | 31 | 64 | 0.0 | 0.0 | 0.00 | 0.01 | 0.01 | 99 | 1017.5 |
| 20260502100722 | 32 | 64 | 0.0 | 0.0 | 0.00 | 0.01 | 0.01 | 99 | 1017.4 |
| 20260502100220 | 32 | 64 | 0.0 | 0.0 | 0.00 | 0.01 | 0.01 | 99 | 1017.2 |
| 20260502091154 | 32 | 201 | 0.0 | 0.0 | 0.00 | 0.01 | 0.01 | 99 | 1017.6 |
| 20260502090651 | 32 | 201 | 0.0 | 0.0 | 0.00 | 0.01 | 0.01 | 99 | 1017.5 |
| 20260502090148 | 32 | 201 | 0.0 | 0.0 | 0.00 | 0.01 | 0.01 | 99 | 1017.3 |
| 20260502080111 | 33 | 44 | 0.0 | 0.0 | 0.00 | 0.01 | 0.01 | 99 | 1017.3 |
| 20260502071044 | 33 | 46 | 0.0 | 0.0 | 0.05 | 0.01 | 0.01 | 99 | 1016.9 |
| 20260502070542 | 33 | 41 | 0.0 | 0.0 | 0.05 | 0.01 | 0.01 | 99 | 1017.1 |
| 20260502070039 | 33 | 47 | 0.0 | 0.0 | 0.00 | 0.00 | 0.00 | 99 | 1017.0 |
| 20260502065538 | 33 | 48 | 0.0 | 0.0 | 0.00 | 0.00 | 0.00 | 99 | 1017.1 |
| 20260502065034 | 33 | 47 | 0.0 | 0.0 | 0.00 | 0.00 | 0.00 | 99 | 1017.2 |
| 20260502064533 | 34 | 55 | 0.0 | 0.0 | 0.00 | 0.00 | 0.00 | 99 | 1017.3 |
| 20260502064024 | 35 | 43 | 0.0 | 0.0 | 0.00 | 0.00 | 0.00 | 99 | 1017.3 |
| 20260502063522 | 34 | 42 | 0.0 | 0.0 | 0.00 | 0.00 | 0.00 | 99 | 1017.2 |
| 20260502063020 | 35 | 42 | 0.0 | 0.0 | 0.00 | 0.00 | 0.00 | 99 | 1017.3 |
| 20260502062516 | 35 | 42 | 0.0 | 0.0 | 0.00 | 0.00 | 0.00 | 99 | 1017.4 |
| 20260502062015 | 36 | 42 | 0.0 | 0.0 | 0.00 | 0.00 | 0.00 | 99 | 1017.5 |
| 20260502061512 | 35 | 42 | 0.0 | 0.0 | 0.00 | 0.00 | 0.00 | 99 | 1017.3 |
| 20260502061009 | 36 | 42 | 0.0 | 0.0 | 0.00 | 0.00 | 0.00 | 99 | 1017.4 |
| 20260502060504 | 37 | 101 | 0.0 | 0.0 | 0.00 | 0.00 | 0.00 | 99 | 1017.5 |
| 20260502060001 | 36 | 39 | 0.0 | 0.0 | 0.00 | 0.00 | 0.00 | 99 | 1017.6 |
| 20260502055459 | 35 | 39 | 0.0 | 0.0 | 0.00 | 0.00 | 0.00 | 99 | 1017.6 |
| 20260502054958 | 35 | 39 | 0.0 | 0.0 | 0.00 | 0.00 | 0.00 | 99 | 1017.6 |
| 20260502054455 | 36 | 39 | 0.0 | 0.0 | 0.00 | 0.00 | 0.00 | 99 | 1017.7 |
| 20260502053952 | 36 | 39 | 0.0 | 0.0 | 0.00 | 0.00 | 0.00 | 99 | 1017.6 |
| 20260502053449 | 36 | 40 | 0.0 | 0.0 | 0.00 | 0.00 | 0.00 | 99 | 1017.7 |
| 20260502052947 | 37 | 39 | 0.0 | 0.0 | 0.00 | 0.00 | 0.00 | 99 | 1017.6 |
| 20260502052445 | 37 | 39 | 0.0 | 0.0 | 0.00 | 0.00 | 0.00 | 99 | 1017.7 |
| 20260502051944 | 36 | 39 | 0.0 | 0.0 | 0.00 | 0.00 | 0.00 | 99 | 1017.5 |
| 20260502051441 | 37 | 40 | 0.0 | 0.0 | 0.00 | 0.00 | 0.00 | 99 | 1017.5 |
| 20260502050938 | 37 | 47 | 0.0 | 0.0 | 0.00 | 0.00 | 0.00 | 99 | 1017.4 |
| 20260502050434 | 38 | 47 | 0.0 | 0.0 | 0.00 | 0.00 | 0.00 | 99 | 1017.7 |
| 20260502045932 | 38 | 66 | 0.0 | 0.0 | 0.00 | 0.00 | 0.00 | 99 | 1017.6 |
| 20260502045428 | 37 | 70 | 0.0 | 0.0 | 0.00 | 0.00 | 0.00 | 99 | 1017.5 |
| 20260502044925 | 38 | 91 | 0.0 | 0.0 | 0.00 | 0.00 | 0.00 | 99 | 1017.5 |
| 20260502044421 | 38 | 31 | 0.0 | 0.0 | 0.00 | 0.00 | 0.00 | 99 | 1017.6 |
| 20260502043918 | 38 | 31 | 0.0 | 0.0 | 0.00 | 0.00 | 0.00 | 99 | 1017.3 |
| 20260502043416 | 38 | 47 | 0.0 | 0.0 | 0.00 | 0.00 | 0.00 | 99 | 1017.7 |
| 20260502042915 | 38 | 45 | 0.0 | 0.0 | 0.00 | 0.00 | 0.00 | 99 | 1017.6 |
| 20260502042413 | 37 | 51 | 0.0 | 0.0 | 0.00 | 0.00 | 0.00 | 99 | 1017.5 |
| 20260502041910 | 39 | 55 | 0.0 | 1.0 | 0.00 | 0.00 | 0.00 | 98 | 1017.7 |
| 20260502041408 | 39 | 7 | 0.0 | 0.0 | 0.00 | 0.00 | 0.00 | 99 | 1017.6 |
| 20260502040905 | 39 | 6 | 0.0 | 0.0 | 0.00 | 0.00 | 0.00 | 99 | 1017.6 |
| 20260502040401 | 39 | 245 | 0.0 | 0.0 | 0.00 | 0.00 | 0.00 | 98 | 1017.7 |
| 20260502035857 | 39 | 179 | 2.0 | 2.0 | 0.00 | 0.06 | 0.06 | 98 | 1017.7 |
| 20260502035354 | 39 | 158 | 2.0 | 2.0 | 0.00 | 0.06 | 0.06 | 98 | 1018.0 |
| 20260502034851 | 39 | 191 | 2.0 | 2.0 | 0.00 | 0.06 | 0.06 | 98 | 1017.8 |
| 20260502034350 | 39 | 174 | 2.0 | 2.0 | 0.00 | 0.06 | 0.06 | 98 | 1017.8 |
| 20260502033848 | 40 | 181 | 1.0 | 1.0 | 0.00 | 0.06 | 0.06 | 98 | 1017.8 |
| 20260502033345 | 40 | 172 | 2.0 | 2.0 | 0.00 | 0.06 | 0.06 | 97 | 1017.7 |
| 20260502032841 | 40 | 185 | 3.0 | 3.0 | 0.00 | 0.06 | 0.06 | 97 | 1017.9 |
| 20260502032338 | 40 | 190 | 3.0 | 3.0 | 0.00 | 0.06 | 0.06 | 97 | 1017.7 |
| 20260502031836 | 40 | 196 | 2.0 | 2.0 | 0.00 | 0.06 | 0.06 | 96 | 1017.8 |
| 20260502031334 | 40 | 199 | 0.0 | 0.0 | 0.00 | 0.06 | 0.06 | 96 | 1017.6 |
| 20260502030832 | 40 | 137 | 0.0 | 0.0 | 0.00 | 0.06 | 0.06 | 96 | 1017.5 |
| 20260502030330 | 40 | 137 | 0.0 | 0.0 | 0.00 | 0.06 | 0.06 | 96 | 1017.6 |
| 20260502025826 | 41 | 65 | 1.0 | 1.0 | 0.00 | 0.06 | 0.06 | 96 | 1017.6 |
| 20260502025324 | 41 | 58 | 0.0 | 0.0 | 0.00 | 0.06 | 0.06 | 96 | 1017.6 |
| 20260502024822 | 42 | 65 | 0.0 | 1.0 | 0.00 | 0.06 | 0.06 | 96 | 1017.7 |
| 20260502024320 | 41 | 48 | 3.0 | 4.0 | 0.00 | 0.06 | 0.06 | 95 | 1017.9 |
| 20260502023817 | 42 | 52 | 1.0 | 2.0 | 0.00 | 0.06 | 0.06 | 95 | 1017.7 |
| 20260502023315 | 42 | 60 | 2.0 | 3.0 | 0.12 | 0.06 | 0.06 | 94 | 1017.8 |
| 20260502022813 | 42 | 60 | 4.0 | 4.0 | 0.19 | 0.06 | 0.06 | 93 | 1017.6 |
| 20260502022309 | 42 | 21 | 3.0 | 4.0 | 0.07 | 0.04 | 0.04 | 92 | 1017.6 |
| 20260502021806 | 44 | 4 | 8.0 | 8.0 | 0.00 | 0.03 | 0.03 | 92 | 1017.4 |
| 20260502021303 | 44 | 264 | 0.0 | 0.0 | 0.00 | 0.03 | 0.03 | 90 | 1016.9 |
| 20260502020800 | 43 | 264 | 0.0 | 0.0 | 0.00 | 0.03 | 0.03 | 90 | 1016.7 |
| 20260502020257 | 43 | 264 | 0.0 | 0.0 | 0.00 | 0.03 | 0.03 | 94 | 1016.7 |
| 20260502015755 | 43 | 264 | 0.0 | 0.0 | 0.00 | 0.03 | 0.03 | 94 | 1016.9 |
| 20260502015251 | 43 | 289 | 0.0 | 0.0 | 0.00 | 0.03 | 0.03 | 93 | 1017.0 |
| 20260502014748 | 42 | 289 | 0.0 | 0.0 | 0.00 | 0.03 | 0.03 | 93 | 1017.0 |
| 20260502014245 | 42 | 289 | 0.0 | 0.0 | 0.00 | 0.03 | 0.03 | 93 | 1016.9 |
| 20260502013742 | 42 | 289 | 0.0 | 0.0 | 0.00 | 0.03 | 0.03 | 92 | 1016.8 |
| 20260502013237 | 42 | 289 | 0.0 | 0.0 | 0.00 | 0.03 | 0.03 | 92 | 1016.9 |
| 20260502012734 | 43 | 289 | 0.0 | 0.0 | 0.00 | 0.03 | 0.03 | 92 | 1016.7 |
| 20260502012232 | 42 | 298 | 0.0 | 0.0 | 0.00 | 0.03 | 0.03 | 91 | 1016.7 |
| 20260502011729 | 42 | 11 | 0.0 | 0.0 | 0.00 | 0.03 | 0.03 | 89 | 1016.6 |
| 20260502011225 | 43 | 13 | 0.0 | 0.0 | 0.00 | 0.03 | 0.03 | 88 | 1016.3 |
| 20260502010723 | 43 | 13 | 0.0 | 0.0 | 0.00 | 0.03 | 0.03 | 89 | 1016.0 |
| 20260502010218 | 43 | 15 | 0.0 | 0.0 | 0.00 | 0.03 | 0.03 | 89 | 1016.1 |